McKinney, TX

2:07 PM CDT on April 25, 2017 (GMT -0500)
Collin County Regional

Weather History for KTKI - September, 2013

Change the Weather History Date:

Tuesday, September 3, 2013

  Actual Average (KADS) Record (KADS)
Temperature  
Mean Temperature 86 °F -  
Max Temperature 99 °F 90 °F 109 °F (2000)
Min Temperature 73 °F 72 °F 68 °F (2004)
Cooling Degree Days 21    
Growing Degree Days 36 (Base 50)    
Moisture  
Dew Point 63 °F    
Average Humidity 50    
Maximum Humidity 76    
Minimum Humidity 25    
Precipitation  
Precipitation 0.00 in - - ()
Sea Level Pressure  
Sea Level Pressure 29.93 in    
Wind  
Wind Speed 5 mph (North)    
Max Wind Speed 8 mph    
Max Gust Speed -    
Visibility 10 miles    
Events      
Averages and records for this station are not official NWS values.
T = Trace of Precipitation, MM = Missing Value Source: NWS Daily Summary

Daily Weather History Graph

Daily Weather History Graph

Search for Another Location

Airport or City:

Trip Planner

Search our weather history database for the weather conditions in past years. The results will help you decide how hot, cold, wet, or windy it might be!

Date:

Astronomy

Sep. 03, 2013 Rise Set
Actual Time 7:02 AM CDT 7:48 PM CDT
Civil Twilight 6:37 AM CDT 8:13 PM CDT
Nautical Twilight 6:07 AM CDT 8:43 PM CDT
Astronomical Twilight 5:36 AM CDT 9:13 PM CDT
Moon 5:19 AM CDT (9/3) 6:35 PM CDT (9/3)
Length of Visible Light 13h 36m
Length of Day
12h 46m
Waning Crescent, 3% of the Moon is Illuminated
Sep 3
Waning Crescent
Sep 5
New
Sep 12
First Quarter
Sep 19
Full
Sep 26
Last Quarter

Hourly Weather History & Observations

Time (CDT) Temp. Heat Index Dew Point Humidity Pressure Visibility Wind Dir Wind Speed Gust Speed Precip Events Conditions
12:53 AM 79.0 °F - 70.0 °F 74% 29.93 in 10.0 mi North 5.8 mph - N/A   Scattered Clouds
1:53 AM 79.0 °F - 66.9 °F 66% 29.93 in 10.0 mi North 3.5 mph - N/A   Clear
2:53 AM 78.1 °F - 64.9 °F 64% 29.93 in 10.0 mi NNW 5.8 mph - N/A   Clear
3:53 AM 75.0 °F - 64.9 °F 71% 29.93 in 10.0 mi North 6.9 mph - N/A   Clear
4:53 AM 75.0 °F - 64.0 °F 69% 29.94 in 10.0 mi NNW 3.5 mph - N/A   Clear
5:53 AM 73.0 °F - 64.9 °F 76% 29.95 in 10.0 mi Calm Calm - N/A   Scattered Clouds
6:53 AM 73.0 °F - 64.0 °F 73% 29.96 in 10.0 mi North 4.6 mph - N/A   Partly Cloudy
7:53 AM 73.9 °F - 64.0 °F 71% 29.97 in 10.0 mi North 4.6 mph - N/A   Clear
8:53 AM 78.1 °F - 66.0 °F 66% 29.98 in 10.0 mi North 6.9 mph - N/A   Clear
9:53 AM 82.9 °F 85.0 °F 66.0 °F 56% 29.99 in 10.0 mi NNE 3.5 mph - N/A   Clear
10:53 AM 87.1 °F 88.9 °F 64.9 °F 48% 29.99 in 10.0 mi ENE 3.5 mph - N/A   Clear
11:53 AM 91.0 °F 92.6 °F 64.0 °F 41% 29.98 in 10.0 mi Variable 5.8 mph - N/A   Clear
12:53 PM 93.9 °F 96.1 °F 64.9 °F 38% 29.96 in 10.0 mi NNW 8.1 mph - N/A   Clear
1:53 PM 97.0 °F 99.9 °F 64.9 °F 35% 29.94 in 10.0 mi North 6.9 mph - N/A   Clear
2:53 PM 95.0 °F 95.6 °F 62.1 °F 33% 29.92 in 10.0 mi Calm Calm - N/A   Partly Cloudy
3:53 PM 97.0 °F 97.4 °F 61.0 °F 30% 29.90 in 10.0 mi Variable 6.9 mph - N/A   Clear
4:53 PM 98.1 °F 97.7 °F 59.0 °F 27% 29.87 in 10.0 mi Variable 3.5 mph - N/A   Clear
5:53 PM 99.0 °F 98.1 °F 57.0 °F 25% 29.87 in 10.0 mi North 8.1 mph - N/A   Clear
6:53 PM 97.0 °F 95.3 °F 55.9 °F 25% 29.87 in 10.0 mi North 3.5 mph - N/A   Clear
7:53 PM 90.0 °F 88.8 °F 57.9 °F 34% 29.88 in 10.0 mi North 5.8 mph - N/A   Clear
8:53 PM 89.1 °F 88.2 °F 59.0 °F 36% 29.91 in 10.0 mi NE 3.5 mph - N/A   Clear
9:53 PM 84.9 °F 84.8 °F 60.1 °F 43% 29.93 in 10.0 mi Calm Calm - N/A   Clear
10:53 PM 82.0 °F 82.1 °F 59.0 °F 45% 29.93 in 10.0 mi Calm Calm - N/A   Clear
11:53 PM 79.0 °F - 61.0 °F 54% 29.94 in 10.0 mi NNW 5.8 mph - N/A   Clear